Regional Weather Roundup
Issued by NWS Spokane, WA

Home | Current Version | Previous Version | Text Only | Print | Product List | Glossary On
Versions: 1 2 3 4 5 6 7 8 9 10 11 12 13 14 15 16 17 18 19 20 21 22 23 24 25 26 27 28 29 30 31 32 33 34 35 36 37 38 39 40 41 42 43 44 45 46 47 48 49 50
000
NZUS01 KOTX 030710
RWROTX
EASTERN WASHINGTON/NORTHERN IDAHO ROUNDUP
NATIONAL WEATHER SERVICE, SPOKANE WA
1200 AM PDT WED SEP 03 2014

Note: "fair" indicated few or no clouds below 12,000 feet with no
significant weather and/or obstructions to visibility.

...NORTHEAST WASHINGTON AND NORTHERN IDAHO PANHANDLE...

CITY           SKY/WX    TMP DP  RH WIND       PRES   REMARKS
SPOKANE INTL   MOCLDY    55  47  74 S12       29.69S
SPOKANE DOWNTO CLOUDY    59  47  64 SW9       29.70R
COEUR D ALENE  CLOUDY    54  48  82 S9        29.70R
DEER PARK      LGT RAIN  55  50  83 SE8       29.66F
SANDPOINT      RAIN      54  54 100 CALM      29.67R

...SOUTHEAST WASHINGTON AND SOUTHERN IDAHO PANHANDLE...

CITY           SKY/WX    TMP DP  RH WIND       PRES   REMARKS
WALLA WALLA    PTCLDY    62  46  55 SW18G24   29.84R
PULLMAN/MOSCOW LGT RAIN  58  40  51 W13G26    29.80R
LEWISTON       CLOUDY    67  46  47 W18G25    29.75R
LOWELL           N/A     59  50  72 CALM      29.73R

...COLUMBIA BASIN...

CITY           SKY/WX    TMP DP  RH WIND       PRES   REMARKS
EPHRATA        MOCLDY    59  35  40 E7        29.74R
MOSES LAKE     PTCLDY    61  36  39 W22G31    29.74R
TRI CITIES     CLEAR     63  42  46 W10       29.80R
HERMISTON      CLEAR     62  45  53 SW17G24   29.82R
PENDLETON      PTCLDY    59  42  53 W23       29.85R

...EAST SLOPES CASCADES...

CITY           SKY/WX    TMP DP  RH WIND       PRES   REMARKS
THE DALLES     PTCLDY    63  46  54 NW9G23    29.88R
YAKIMA         CLEAR     61  40  45 W16G23    29.81R
ELLENSBURG     MOCLDY    52  43  71 NW15      29.83R
WENATCHEE      CLEAR     58  38  47 NW23      29.74R
OMAK           CLOUDY    56  48  74 N12       29.71R

...SOUTHERN BRITISH COLUMBIA...

CITY           SKY/WX    TMP DP  RH WIND       PRES   REMARKS
PENTICTON      LGT RAIN  54  50  87 NE5       29.75S
CRANBROOK      LGT RAIN  50  48  93 S8        29.71S

...WESTERN MONTANA...

CITY           SKY/WX    TMP DP  RH WIND       PRES   REMARKS
MISSOULA       MOCLDY    64  38  38 NW9       29.71S

...NEIGHBORING CITIES...

CITY           SKY/WX    TMP DP  RH WIND       PRES   REMARKS
SEATTLE        LGT RAIN  57  52  83 SW8       29.91S
CALGARY        MOCLDY    46  41  81 N9        29.78R



USA.gov is the U.S. government's official web portal to all federal, state and local government web resources and services.